Location: Monrovia
(34.7865°N, 86.7139°W)
Time: 20:40:59
(UTC+00:00)

SEDSat Delta rocket - Pass Details

Date: 14 July 2020
Orbit: 533 x 1000 km, 31.4° (Epoch: 08 August)

Event Time Altitude Azimuth Distance (km) Brightness Sun altitude
Rises 03:27:35 0° 258° (WSW) 3,227 7.1 -23.9°
Reaches altitude 10° 03:29:57 10° 255° (WSW) 2,372 6.3 -24.2°
Maximum altitude 03:35:36 63° 175° (S) 973 3.7 -24.9°
Enters shadow 03:35:53 62° 160° (SSE) 983 3.7 -24.9°
